Regional Weather Roundup
Issued by NWS

Home | Current Version | Previous Version | Text Only | Print | Product List | Glossary On
Versions: 1 2 3 4 5 6 7 8 9 10 11 12 13 14 15 16 17 18 19 20 21 22 23 24 25 26 27 28 29 30 31 32 33 34 35 36 37 38 39 40 41 42 43 44 45 46 47 48 49 50
000
ASUS44 KBMX 032010
RWRAL

ALABAMA REGIONAL WEATHER ROUNDUP
NATIONAL WEATHER SERVICE BIRMINGHAM AL
300 PM CDT FRI JUL 03 2015

NOTE: "FAIR" INDICATES FEW OR NO CLOUDS BELOW 12,000 FEET
WITH NO SIGNIFICANT WEATHER AND/OR OBSTRUCTIONS TO VISIBILITY.

THE REMARK "TC" DENOTES TEMPERATURE IN DEGREES CELSIUS.

ALZ001>011-014-016>018-020-032100-
NORTH ALABAMA

CITY           SKY/WX    TMP DP  RH WIND       PRES   REMARKS
MUSCLE SHOALS  RAIN      71  67  87 SW12      30.03S
HUNTSVILLE     LGT RAIN  74  71  91 W10       30.01F
DECATUR        LGT RAIN  72  68  87 W13       30.01F
HALEYVILLE     LGT RAIN  70  70 100 CALM      30.07F
GADSDEN        CLOUDY    82  64  54 W5        30.02F
$$

ALZ012-013-022-023-030>036-040>044-032100-
WEST CENTRAL ALABAMA

CITY           SKY/WX    TMP DP  RH WIND       PRES   REMARKS
TUSCALOOSA     CLOUDY    83  70  64 NE7       30.00F
$$

ALZ015-024>027-033>036-040>044-032100-
CENTRAL ALABAMA

CITY           SKY/WX    TMP DP  RH WIND       PRES   REMARKS
BIRMINGHAM     CLOUDY    80  68  66 W7        30.06S
MONTGOMERY     CLOUDY    91  72  53 VRB6      30.02S HX  98
SHELBY CO ARPT CLOUDY    81  72  74 W5        30.03F
MAXWELL AFB    NOT AVBL
GREENVILLE     NOT AVBL
$$

ALZ019-021-028-029-037-038-045>048-032100-
EAST CENTRAL ALABAMA

CITY           SKY/WX    TMP DP  RH WIND       PRES   REMARKS
ANNISTON       CLOUDY    77  70  79 SW8       30.04F
ALEXANDER CITY CLOUDY    82  68  62 NW3       30.05S
AUBURN         PTSUNNY   84  68  58 W6        30.06S
$$

ALZ051>064-032100-
SOUTHWEST ALABAMA

CITY           SKY/WX    TMP DP  RH WIND       PRES   REMARKS
MOBILE         PTSUNNY   90  74  59 S13       30.04F HX  99
BROOKLEY FIELD MOSUNNY   91  73  55 SW6       30.04F HX  99
EVERGREEN      PTSUNNY   90  73  57 W8        30.03F HX  98
$$

ALZ049-050-065>069-032100-
SOUTHEAST ALABAMA

CITY           SKY/WX    TMP DP  RH WIND       PRES   REMARKS
DOTHAN         MOSUNNY   91  72  53 SW10G20   30.07F HX  98
OZARK          MOSUNNY   91  72  54 W10       30.03F HX  98
TROY           PTSUNNY   91  72  53 W7        30.04F HX  98
EUFAULA        FAIR      93  72  50 SW8       30.01F HX 101
$$


USA.gov is the U.S. government's official web portal to all federal, state and local government web resources and services.